User: anonymous   Login
Location: Christchurch
(43.5330°S, 172.6330°E)
Time: 12:27:00
(UTC+13:00)
Language:

Meteor 2-13 Rocket - Orbit

View from above orbital plane
View from above orbital plane
View from above satellite
View from above satellite

Ground track
Ground track

The orbit data is extracted from the following two-line orbital elements,

1 16409U 85119B   19318.35276875  .00000037  00000-0  19237-4 0  9995
2 16409  82.5399  18.8245 0016212  76.9276 283.3693 13.84809174712644
Epoch (UTC): 14 November 2019 08:27:59
Eccentricity: 0.0016212
inclination: 82.5399°
perigee height: 935 km
apogee height: 959 km
right ascension of ascending node: 18.8245°
argument of perigee: 76.9276°
revolutions per day: 13.84809174
mean anomaly at epoch: 283.3693°
orbit number at epoch: 71264

The dashed part of the orbit path shows where the satellite is in the earth's shadow,  

DLR